Hourly Data Report for September 02, 2012

HALIFAX STANFIELD INT'L A
NOVA SCOTIA

44°52'48.060" N
63°30'00.050" W
145.40 m
8202250
71395
YHZ

Download Data

Hourly Data (September 2012)
Hourly Data Report for September 2, 2012
TIME
LST
Temp Definition
°C
Dew Point Definition
°C
Rel Hum Definition
%
Precip. Amount Definition
mm

Wind Dir Definition
10's deg

Wind Spd Definition
km/h
Visibility Definition
km
Stn Press Definition
kPa
Hmdx Definition


Wind Chill Definition


Weather Definition


00:00 10.8 4.8 66   32 4 24.1 100.35     Clear
01:00 9.4 4.4 71   25 7 24.1 100.36     Clear
02:00 9.8 4.9 72     0 24.1 100.36     Clear
03:00 8.6 5.6 81     0 24.1 100.36     Clear
04:00 7.7 5.7 87     0 24.1 100.37     Clear
05:00 10.0 5.7 75     0 24.1 100.39     Clear
06:00 10.7 5.9 72     0 24.1 100.44     Mainly Clear
07:00 12.6 8.5 76   35 4 24.1 100.49     Mainly Clear
08:00 14.5 8.0 65   7 7 24.1 100.51     Mainly Clear
09:00 15.5 8.3 62     0 24.1 100.53     Mainly Clear
10:00 15.4 6.4 55   15 2 24.1 100.55     Mainly Clear
11:00 16.2 6.8 54   14 7 24.1 100.53     Mostly Cloudy
12:00 17.8 7.2 50   22 6 24.1 100.47     Mostly Cloudy
13:00 18.1 7.9 51   29 4 24.1 100.47     Mostly Cloudy
14:00 18.2 9.0 55   17 11 24.1 100.44     Mostly Cloudy
15:00 17.2 8.1 55   16 20 24.1 100.45     Mostly Cloudy
16:00 17.1 8.5 57   16 15 24.1 100.43     Mostly Cloudy
17:00 16.2 7.6 57   17 13 24.1 100.47     Mostly Cloudy
18:00 14.4 7.8 65   14 11 24.1 100.45     Mostly Cloudy
19:00 12.7 8.7 77   18 11 24.1 100.49     Mostly Cloudy
20:00 12.2 8.6 79   18 11 24.1 100.56     Mostly Cloudy
21:00 12.1 10.4 89   18 7 24.1 100.59     Mostly Cloudy
22:00 10.9 10.4 97   17 9 24.1 100.56     Mostly Cloudy
23:00 10.5 10.4 99   17 4 24.1 100.54     Mostly Cloudy

Notes on Data Quality.

Legend

  • E = Estimated
  • M = Missing
  • NA = Not Available*
  • [empty] = Indicates an unobserved value
Date modified: